Date String (YYYY-MM-DD hh:mm:ss) UTC,Instrument flags,Ambient pressure (hPa),Sample flow (lpm),Bypass flow (lpm),Sample temperature (°C),Ambient temperature (°C),ASC tube jacket temperature (°C),LED temperature (°C),Box temperature (°C),Sample RH (%),Span deviation,Mass concentration (μg/m³),Mass concentration (μg/m³),Mass concentration (μg/m³)
DateTimeUTC,F1_M11,P_M11,Q1_M11,Q2_M11,T1_M11,T2_M11,T3_M11,T4_M11,T5_M11,U1_M11,ZSPAN_M11,X2_M11,X0_M11,X1_M11
2022-03-28 18:00:00,,0819.5,5.00,0.00,27.5,26.7,00.0,36.3,29.2,05.6,0000.0,0002.18,0005.67,0001.19
2022-03-28 18:01:00,,0819.4,5.01,0.00,27.5,26.7,00.0,36.3,29.3,05.6,0000.0,0002.24,0005.80,0001.21
2022-03-28 18:02:00,,0819.4,5.01,0.00,27.5,26.7,00.0,36.4,29.3,05.7,0000.0,0002.26,0005.59,0001.22
2022-03-28 18:03:00,,0819.4,4.99,0.00,27.5,26.7,00.0,36.4,29.3,05.7,0000.0,0002.18,0004.94,0001.23
2022-03-28 18:04:00,,0819.4,4.99,0.00,27.5,26.7,00.0,36.4,29.3,05.4,0000.0,0002.23,0005.04,0001.24
2022-03-28 18:05:00,,0819.4,5.02,0.00,27.5,26.7,00.0,36.4,29.3,05.6,0000.0,0002.30,0006.03,0001.25
2022-03-28 18:06:00,,0819.4,4.99,0.00,27.6,26.8,00.0,36.4,29.4,05.6,0000.0,0002.28,0006.30,0001.24
2022-03-28 18:07:00,,0819.4,5.00,0.00,27.6,26.8,00.0,36.4,29.3,05.7,0000.0,0002.27,0006.45,0001.24
2022-03-28 18:08:00,,0819.4,4.99,0.00,27.6,26.8,00.0,36.4,29.4,05.7,0000.0,0002.30,0007.14,0001.25
2022-03-28 18:09:00,,0819.4,5.00,0.00,27.6,26.8,00.0,36.5,29.4,06.1,0000.0,0002.30,0007.26,0001.25
2022-03-28 18:10:00,,0819.4,5.00,0.00,27.6,26.8,00.0,36.5,29.4,05.8,0000.0,0002.23,0006.99,0001.26
2022-03-28 18:11:00,,0819.4,5.00,0.00,27.6,26.8,00.0,36.5,29.4,05.6,0000.0,0002.25,0007.02,0001.26
2022-03-28 18:12:00,,0819.4,4.99,0.00,27.6,26.8,00.0,36.5,29.4,05.6,0000.0,0002.23,0006.98,0001.25
2022-03-28 18:13:00,,0819.4,5.01,0.00,27.6,26.9,00.0,36.5,29.4,05.5,0000.0,0002.24,0007.02,0001.25
2022-03-28 18:14:00,,0819.4,5.00,0.00,27.6,26.9,00.0,36.5,29.4,05.5,0000.0,0002.27,0007.09,0001.26
2022-03-28 18:15:00,,0819.3,4.99,0.00,27.7,26.9,00.0,36.5,29.4,05.7,0000.0,0002.27,0007.10,0001.27
2022-03-28 18:16:00,,0819.4,5.00,0.00,27.7,26.9,00.0,36.5,29.5,05.8,0000.0,0002.29,0007.57,0001.28
2022-03-28 18:17:00,,0819.4,5.01,0.00,27.7,26.9,00.0,36.5,29.5,06.1,0000.0,0002.27,0006.95,0001.27
2022-03-28 18:18:00,,0819.4,4.99,0.00,27.7,26.9,00.0,36.6,29.5,05.7,0000.0,0002.27,0006.73,0001.26
2022-03-28 18:19:00,,0819.4,4.99,0.00,27.7,26.9,00.0,36.6,29.5,05.5,0000.0,0002.20,0005.95,0001.24
2022-03-28 18:20:00,,0819.3,5.01,0.00,27.7,26.9,00.0,36.6,29.5,05.6,0000.0,0002.16,0005.87,0001.24
2022-03-28 18:21:00,,0819.3,4.99,0.00,27.7,27.0,00.0,36.6,29.5,05.6,0000.0,0002.14,0005.84,0001.23
2022-03-28 18:22:00,,0819.3,4.99,0.00,27.8,27.0,00.0,36.6,29.5,05.4,0000.0,0002.12,0005.93,0001.21
2022-03-28 18:23:00,,0819.3,5.01,0.00,27.8,27.0,00.0,36.6,29.6,05.4,0000.0,0002.10,0006.55,0001.22
2022-03-28 18:24:00,,0819.2,5.00,0.00,27.8,27.0,00.0,36.6,29.6,05.8,0000.0,0002.12,0006.92,0001.21
2022-03-28 18:25:00,,0819.2,5.00,0.00,27.8,27.0,00.0,36.7,29.6,05.4,0000.0,0002.13,0006.98,0001.20
2022-03-28 18:26:00,,0819.1,4.99,0.00,27.8,27.0,00.0,36.7,29.6,05.4,0000.0,0002.08,0006.93,0001.17
2022-03-28 18:27:00,,0819.2,5.00,0.00,27.8,27.1,00.0,36.7,29.6,05.4,0000.0,0002.04,0006.23,0001.16
2022-03-28 18:28:00,,0819.2,5.00,0.00,27.9,27.1,00.0,36.7,29.7,05.3,0000.0,0002.04,0007.46,0001.17
2022-03-28 18:29:00,,0819.3,5.01,0.00,27.9,27.1,00.0,36.7,29.7,05.6,0000.0,0002.13,0007.64,0001.17
2022-03-28 18:30:00,,0819.2,5.01,0.00,27.9,27.1,00.0,36.7,29.6,05.1,0000.0,0002.16,0007.77,0001.17
2022-03-28 18:31:00,,0819.2,4.99,0.00,27.9,27.1,00.0,36.7,29.7,05.3,0000.0,0002.15,0007.67,0001.16
2022-03-28 18:32:00,,0819.2,4.99,0.00,27.9,27.1,00.0,36.7,29.7,05.3,0000.0,0002.16,0007.69,0001.16
2022-03-28 18:33:00,,0819.1,5.01,0.00,27.9,27.1,00.0,36.8,29.7,05.4,0000.0,0002.22,0007.87,0001.15
2022-03-28 18:34:00,,0819.1,4.99,0.00,27.9,27.1,00.0,36.8,29.7,05.1,0000.0,0002.23,0007.57,0001.14
2022-03-28 18:35:00,,0819.1,5.00,0.00,27.9,27.2,00.0,36.8,29.7,05.2,0000.0,0002.23,0007.42,0001.15
2022-03-28 18:36:00,,0819.1,5.00,0.00,28.0,27.2,00.0,36.8,29.7,05.1,0000.0,0002.22,0007.41,0001.14
2022-03-28 18:37:00,,0819.0,5.00,0.00,28.0,27.1,00.0,36.8,29.7,05.1,0000.0,0002.25,0007.49,0001.15
2022-03-28 18:38:00,,0819.1,4.99,0.00,28.0,27.1,00.0,36.8,29.8,05.0,0000.0,0002.19,0007.01,0001.13
2022-03-28 18:39:00,,0819.0,5.01,0.00,28.0,27.2,00.0,36.8,29.8,04.9,0000.0,0002.21,0005.95,0001.13
2022-03-28 18:40:00,,0818.9,5.00,0.00,28.0,27.2,00.0,36.8,29.8,05.0,0000.0,0002.09,0006.52,0001.12
2022-03-28 18:41:00,,0818.9,5.00,0.00,28.0,27.2,00.0,36.9,29.8,05.2,0000.0,0002.07,0006.84,0001.11
2022-03-28 18:42:00,,0818.9,5.01,0.00,28.0,27.2,00.0,36.9,29.8,04.7,0000.0,0002.13,0007.57,0001.12
2022-03-28 18:43:00,,0818.9,5.01,0.00,28.1,27.2,00.0,36.9,29.8,04.8,0000.0,0002.12,0007.97,0001.11
2022-03-28 18:44:00,,0818.9,4.99,0.00,28.1,27.3,00.0,36.9,29.9,04.9,0000.0,0002.03,0007.73,0001.10
2022-03-28 18:45:00,,0818.9,4.99,0.00,28.1,27.3,00.0,36.9,29.9,05.1,0000.0,0002.03,0007.86,0001.10
2022-03-28 18:46:00,,0818.9,5.01,0.00,28.1,27.3,00.0,36.9,29.9,05.0,0000.0,0001.98,0008.34,0001.09
2022-03-28 18:47:00,,0818.9,5.01,0.00,28.1,27.3,00.0,36.9,29.9,05.0,0000.0,0002.00,0008.36,0001.10
2022-03-28 18:48:00,,0818.9,4.99,0.00,28.1,27.3,00.0,37.0,29.9,05.0,0000.0,0001.99,0008.51,0001.09
2022-03-28 18:49:00,,0818.9,5.01,0.00,28.2,27.3,00.0,37.0,30.0,05.0,0000.0,0002.02,0008.71,0001.11
2022-03-28 18:50:00,,0818.9,5.00,0.00,28.2,27.3,00.0,37.0,30.0,05.2,0000.0,0002.00,0008.80,0001.11
2022-03-28 18:51:00,,0818.9,4.99,0.00,28.2,27.3,00.0,37.0,30.0,05.3,0000.0,0002.03,0008.80,0001.12
2022-03-28 18:52:00,,0818.9,5.00,0.00,28.2,27.4,00.0,37.0,30.0,05.4,0000.0,0002.00,0008.39,0001.13
2022-03-28 18:53:00,,0818.8,5.01,0.00,28.2,27.4,00.0,37.0,30.0,05.3,0000.0,0001.99,0007.95,0001.13
2022-03-28 18:54:00,,0818.8,4.98,0.00,28.3,27.4,00.0,37.1,30.1,05.5,0000.0,0002.00,0007.49,0001.15
2022-03-28 18:55:00,,0818.8,5.01,0.00,28.3,27.5,00.0,37.1,30.1,06.0,0000.0,0002.04,0007.50,0001.17
2022-03-28 18:56:00,,0818.8,5.00,0.00,28.3,27.5,00.0,37.1,30.2,05.9,0000.0,0002.03,0007.42,0001.18
2022-03-28 18:57:00,,0818.8,5.00,0.00,28.3,27.5,00.0,37.1,30.2,05.8,0000.0,0001.99,0006.32,0001.18
2022-03-28 18:58:00,,0818.8,5.01,0.00,28.3,27.5,00.0,37.1,30.2,06.0,0000.0,0002.00,0006.75,0001.18
2022-03-28 18:59:00,,0818.8,5.01,0.00,28.3,27.6,00.0,37.2,30.2,05.8,0000.0,0001.97,0006.60,0001.19
